• în România
  • Lista ţărilor
  • Pe 7 zile
  • Temperatura apei
  • Hartă satelitară
  • Meteo pe hartă
  • Widget-uri
  • user-avatar
    Intrare

    Meteo pe oră la Kameevo

    Astăzi, 15 Octombrie, Luni

    Timp Temperatura Precipitaţii Vânt Presiune Umiditate
    00:00 -2°C° 0 mm 2 m/s 755 mmHg 84%
    01:00 -2°C° 0 mm 2 m/s 755 mmHg 86%
    02:00 -2°C° 0 mm 2 m/s 755 mmHg 86%
    03:00 -2°C° 0 mm 2 m/s 755 mmHg 86%
    04:00 0°C° 0 mm 1 m/s 755 mmHg 86%
    05:00 0°C° 0 mm 1 m/s 755 mmHg 86%
    06:00 0°C° 0 mm 1 m/s 755 mmHg 85%
    07:00 0°C° 0 mm 1 m/s 755 mmHg 85%
    08:00 +1°C° 0 mm 1 m/s 755 mmHg 78%
    09:00 +2°C° 0 mm 1 m/s 755 mmHg 72%
    10:00 +3°C° 0 mm 1 m/s 755 mmHg 63%
    11:00 +4°C° 0 mm 1 m/s 756 mmHg 60%
    12:00 +4°C° 0 mm 1 m/s 756 mmHg 57%
    13:00 +5°C° 0 mm 1 m/s 756 mmHg 54%
    14:00 +5°C° 0 mm 1 m/s 756 mmHg 56%
    15:00 +5°C° 0 mm 1 m/s 756 mmHg 59%
    16:00 +4°C° 0 mm 1 m/s 756 mmHg 61%
    17:00 +4°C° 0 mm 1 m/s 756 mmHg 63%
    18:00 +2°C° 0 mm 0 m/s 756 mmHg 66%
    19:00 +1°C° 0 mm 0 m/s 756 mmHg 68%
    20:00 +2°C° 0 mm 1 m/s 756 mmHg 69%
    21:00 +3°C° 0 mm 1 m/s 756 mmHg 70%
    22:00 +3°C° 0 mm 1 m/s 756 mmHg 71%
    23:00 +1°C° 0.5 mm 2 m/s 756 mmHg 75%

    Mâine, 16 Octombrie, Marţi

    Timp Temperatura Precipitaţii Vânt Presiune Umiditate
    00:00 +1°C° 0.5 mm 2 m/s 756 mmHg 79%
    01:00 +1°C° 0.5 mm 2 m/s 756 mmHg 83%
    02:00 0°C° 0.4 mm 3 m/s 755 mmHg 85%
    03:00 0°C° 0.4 mm 3 m/s 755 mmHg 87%
    04:00 -1°C° 0.4 mm 4 m/s 755 mmHg 89%
    05:00 -1°C° 0.1 mm 4 m/s 755 mmHg 90%
    06:00 -1°C° 0.1 mm 4 m/s 755 mmHg 90%
    07:00 -1°C° 0.1 mm 4 m/s 754 mmHg 91%
    08:00 0°C° 0 mm 4 m/s 754 mmHg 90%
    09:00 0°C° 0 mm 4 m/s 754 mmHg 90%
    10:00 0°C° 0 mm 4 m/s 754 mmHg 90%
    11:00 +1°C° 0 mm 4 m/s 754 mmHg 90%
    12:00 +1°C° 0 mm 4 m/s 754 mmHg 89%
    13:00 +3°C° 0 mm 4 m/s 754 mmHg 89%
    14:00 +3°C° 0 mm 4 m/s 754 mmHg 90%
    15:00 +3°C° 0 mm 4 m/s 754 mmHg 91%
    16:00 +3°C° 0 mm 4 m/s 754 mmHg 92%
    17:00 +3°C° 0 mm 4 m/s 753 mmHg 93%
    18:00 +3°C° 0 mm 3 m/s 753 mmHg 94%
    19:00 +4°C° 0 mm 3 m/s 753 mmHg 95%
    20:00 +4°C° 0 mm 3 m/s 753 mmHg 96%
    21:00 +4°C° 0 mm 3 m/s 752 mmHg 96%
    22:00 +4°C° 0 mm 3 m/s 752 mmHg 96%
    23:00 +4°C° 0 mm 3 m/s 752 mmHg 96%

    Poimâine, 17 Octombrie, Miercuri

    Timp Temperatura Precipitaţii Vânt Presiune Umiditate
    00:00 +4°C° 0 mm 3 m/s 751 mmHg 97%
    01:00 +4°C° 0 mm 3 m/s 751 mmHg 97%
    02:00 +4°C° 0 mm 3 m/s 750 mmHg 97%
    03:00 +4°C° 0 mm 4 m/s 750 mmHg 96%
    04:00 +4°C° 0 mm 4 m/s 749 mmHg 96%
    05:00 +4°C° 0 mm 4 m/s 749 mmHg 96%
    06:00 +4°C° 0 mm 4 m/s 748 mmHg 96%
    07:00 +4°C° 0 mm 4 m/s 747 mmHg 95%
    08:00 +5°C° 0 mm 5 m/s 747 mmHg 92%
    09:00 +6°C° 0 mm 5 m/s 747 mmHg 89%
    10:00 +7°C° 0 mm 5 m/s 746 mmHg 86%
    11:00 +7°C° 0 mm 5 m/s 746 mmHg 86%
    12:00 +7°C° 0 mm 5 m/s 746 mmHg 86%
    13:00 +7°C° 0 mm 5 m/s 746 mmHg 86%
    14:00 +7°C° 0.1 mm 6 m/s 747 mmHg 81%
    15:00 +5°C° 0.1 mm 6 m/s 747 mmHg 76%
    16:00 +5°C° 0.1 mm 6 m/s 748 mmHg 71%
    17:00 +5°C° 0 mm 6 m/s 748 mmHg 72%
    18:00 +4°C° 0 mm 6 m/s 749 mmHg 73%
    19:00 +3°C° 0 mm 6 m/s 749 mmHg 74%
    20:00 +3°C° 0 mm 6 m/s 750 mmHg 75%
    21:00 +3°C° 0 mm 6 m/s 750 mmHg 77%
    22:00 +2°C° 0 mm 6 m/s 750 mmHg 78%
    23:00 +2°C° 0 mm 6 m/s 751 mmHg 80%

    18 Octombrie, Joi

    Timp Temperatura Precipitaţii Vânt Presiune Umiditate
    00:00 +2°C° 0 mm 6 m/s 751 mmHg 82%
    01:00 +1°C° 0 mm 5 m/s 751 mmHg 84%
    02:00 +1°C° 0 mm 5 m/s 752 mmHg 85%
    03:00 +1°C° 0 mm 5 m/s 752 mmHg 86%
    04:00 +1°C° 0 mm 5 m/s 752 mmHg 88%
    05:00 +1°C° 0 mm 5 m/s 752 mmHg 88%
    06:00 +1°C° 0 mm 5 m/s 752 mmHg 89%
    07:00 +1°C° 0 mm 5 m/s 752 mmHg 89%
    08:00 +1°C° 0 mm 5 m/s 752 mmHg 86%
    09:00 +2°C° 0 mm 6 m/s 752 mmHg 83%
    10:00 +3°C° 0 mm 6 m/s 752 mmHg 80%
    11:00 +3°C° 0 mm 6 m/s 752 mmHg 78%
    12:00 +3°C° 0 mm 6 m/s 752 mmHg 76%
    13:00 +3°C° 0 mm 6 m/s 752 mmHg 74%
    14:00 +3°C° 0 mm 6 m/s 752 mmHg 75%
    15:00 +3°C° 0 mm 5 m/s 752 mmHg 75%
    16:00 +3°C° 0 mm 5 m/s 752 mmHg 76%
    17:00 +4°C° 0 mm 4 m/s 752 mmHg 78%
    18:00 +4°C° 0 mm 4 m/s 752 mmHg 80%
    19:00 +3°C° 0 mm 3 m/s 752 mmHg 82%
    20:00 +3°C° 0 mm 3 m/s 752 mmHg 84%
    21:00 +3°C° 0 mm 3 m/s 752 mmHg 85%
    22:00 +2°C° 0 mm 3 m/s 752 mmHg 87%
    23:00 +3°C° 0 mm 2 m/s 752 mmHg 89%

    19 Octombrie, Vineri

    Timp Temperatura Precipitaţii Vânt Presiune Umiditate
    00:00 +2°C° 0 mm 2 m/s 752 mmHg 91%
    01:00 +2°C° 0 mm 2 m/s 752 mmHg 93%
    02:00 +2°C° 0 mm 2 m/s 752 mmHg 93%
    03:00 +2°C° 0 mm 1 m/s 752 mmHg 93%
    04:00 +2°C° 0 mm 1 m/s 752 mmHg 94%
    05:00 +2°C° 0 mm 1 m/s 752 mmHg 93%
    06:00 +2°C° 0 mm 1 m/s 752 mmHg 93%
    07:00 +2°C° 0 mm 1 m/s 752 mmHg 92%
    08:00 +3°C° 0 mm 1 m/s 752 mmHg 89%
    09:00 +3°C° 0 mm 2 m/s 752 mmHg 86%
    10:00 +4°C° 0 mm 2 m/s 751 mmHg 84%
    11:00 +4°C° 0 mm 3 m/s 751 mmHg 83%
    12:00 +4°C° 0 mm 3 m/s 751 mmHg 83%
    13:00 +5°C° 0 mm 3 m/s 751 mmHg 83%
    14:00 +5°C° 0.1 mm 3 m/s 751 mmHg 85%
    15:00 +5°C° 0.1 mm 3 m/s 750 mmHg 88%
    16:00 +4°C° 0.1 mm 3 m/s 750 mmHg 90%
    17:00 +5°C° 0.1 mm 3 m/s 750 mmHg 92%
    18:00 +5°C° 0.1 mm 3 m/s 750 mmHg 93%
    19:00 +5°C° 0.1 mm 3 m/s 749 mmHg 95%
    20:00 +5°C° 0 mm 3 m/s 749 mmHg 95%
    21:00 +5°C° 0 mm 3 m/s 749 mmHg 95%
    22:00 +5°C° 0 mm 3 m/s 748 mmHg 95%
    23:00 +5°C° 0 mm 3 m/s 748 mmHg 95%

    20 Octombrie, Sâmbătă

    Timp Temperatura Precipitaţii Vânt Presiune Umiditate
    00:00 +5°C° 0 mm 3 m/s 748 mmHg 95%
    01:00 +5°C° 0 mm 3 m/s 748 mmHg 96%
    02:00 +5°C° 0 mm 4 m/s 748 mmHg 96%
    03:00 +5°C° 0 mm 4 m/s 748 mmHg 96%
    04:00 +5°C° 0 mm 4 m/s 748 mmHg 96%
    05:00 +5°C° 0.1 mm 4 m/s 748 mmHg 96%
    06:00 +5°C° 0.1 mm 4 m/s 748 mmHg 96%
    07:00 +5°C° 0.1 mm 4 m/s 748 mmHg 96%
    08:00 +5°C° 0.1 mm 4 m/s 748 mmHg 95%
    09:00 +6°C° 0.1 mm 4 m/s 748 mmHg 93%
    10:00 +6°C° 0.1 mm 4 m/s 748 mmHg 92%
    11:00 +6°C° 0.1 mm 4 m/s 748 mmHg 89%
    12:00 +6°C° 0.1 mm 4 m/s 749 mmHg 86%
    13:00 +7°C° 0.1 mm 4 m/s 749 mmHg 83%
    14:00 +7°C° 0 mm 4 m/s 749 mmHg 81%
    15:00 +8°C° 0 mm 3 m/s 749 mmHg 79%
    16:00 +8°C° 0 mm 3 m/s 749 mmHg 76%
    17:00 +7°C° 0 mm 3 m/s 749 mmHg 80%
    18:00 +5°C° 0 mm 3 m/s 749 mmHg 83%
    19:00 +4°C° 0 mm 3 m/s 749 mmHg 86%
    20:00 +4°C° 0 mm 3 m/s 749 mmHg 87%
    21:00 +4°C° 0 mm 3 m/s 750 mmHg 89%
    22:00 +3°C° 0 mm 3 m/s 750 mmHg 90%
    23:00 +4°C° 0 mm 2 m/s 750 mmHg 91%
    Arată mai mult